Weather History for Camp Pendleton, CA

Change the Weather History Date:

Thursday, December 13, 2012

  Actual Average Record
Temperature  
Mean Temperature 54 °F -  
Max Temperature 60 °F 66 °F 81 °F (1998)
Min Temperature 46 °F 37 °F 30 °F (2013)
Degree Days  
Heating Degree Days 11    
Growing Degree Days 4 (Base 50)    
Moisture  
Dew Point 50 °F    
Average Humidity 81    
Maximum Humidity 88    
Minimum Humidity 62    
Precipitation  
Precipitation 0.62 in - - ()
Sea Level Pressure  
Sea Level Pressure 29.80 in    
Wind  
Wind Speed 4 mph (South)    
Max Wind Speed 9 mph    
Max Gust Speed -    
Visibility 7 miles    
Events Rain    
Averages and records for this station are not official NWS values.
T = Trace of Precipitation, MM = Missing Value Source: NWS Daily Summary

Daily Weather History Graph

Daily Weather History Graph

Search for Another Location

Airport:

Trip Planner

Search our weather history database for the weather conditions in past years. The results will help you decide how hot, cold, wet, or windy it might be!

Date:

Astronomy

Dec. 13, 2012 Rise Set
Actual Time 6:44 AM PST 4:43 PM PST
Civil Twilight 6:17 AM PST 5:10 PM PST
Nautical Twilight 5:46 AM PST 5:41 PM PST
Astronomical Twilight 5:16 AM PST 6:11 PM PST
Moon 6:58 AM PST (12/13) 5:29 PM PST (12/13)
Length of Visible Light 10h 53m
Length of Day
9h 58m
New Moon, 0% of the Moon is Illuminated
Dec 13
New Moon
Dec 19
First Quarter
Dec 28
Full
Jan 4
Last Quarter
Jan 11
New

Hourly Weather History & Observations

Time (PST) Temp. Dew Point Humidity Pressure Visibility Wind Dir Wind Speed Gust Speed Precip Events Conditions
12:54 AM 57.9 °F 52.0 °F 81% 29.84 in 7.0 mi SE 5.8 mph - 0.01 in Rain Light Rain
1:18 AM 57.2 °F 51.8 °F 82% 29.83 in 10.0 mi WSW 3.5 mph - 0.00 in Rain Light Rain
1:44 AM 59.0 °F 53.6 °F 82% 29.84 in 10.0 mi South 6.9 mph - 0.05 in   Overcast
1:54 AM 59.0 °F 52.0 °F 78% 29.83 in 10.0 mi South 5.8 mph - 0.05 in   Overcast
2:54 AM 57.9 °F 53.1 °F 84% 29.82 in 10.0 mi SE 5.8 mph - N/A   Overcast
3:54 AM 57.9 °F 53.1 °F 84% 29.81 in 9.0 mi SW 5.8 mph - 0.05 in Rain Light Rain
4:05 AM 57.2 °F 51.8 °F 82% 29.80 in 7.0 mi South 9.2 mph - 0.00 in Rain Light Rain
4:24 AM 57.2 °F 51.8 °F 82% 29.80 in 10.0 mi SSW 3.5 mph - 0.01 in Rain Light Rain
4:54 AM 57.0 °F 52.0 °F 83% 29.80 in 6.0 mi SSW 5.8 mph - 0.06 in Rain Light Rain
5:08 AM 57.2 °F 51.8 °F 82% 29.80 in 9.0 mi South 4.6 mph - 0.00 in Rain Light Rain
5:33 AM 57.2 °F 51.8 °F 82% 29.80 in 5.0 mi Calm Calm - 0.02 in Rain Light Rain
5:54 AM 57.0 °F 52.0 °F 83% 29.80 in 4.0 mi Calm Calm - 0.05 in Rain Light Rain
6:08 AM 55.4 °F 51.8 °F 88% 29.80 in 5.0 mi Calm Calm - 0.01 in Rain Light Rain
6:15 AM 55.4 °F 51.8 °F 88% 29.79 in 3.0 mi Calm Calm - 0.02 in Rain Rain
6:19 AM 55.4 °F 51.8 °F 88% 29.80 in 2.5 mi Calm Calm - 0.03 in Rain Rain
6:30 AM 55.4 °F 51.8 °F 88% 29.80 in 1.5 mi Calm Calm - 0.10 in Rain Heavy Rain
6:36 AM 55.4 °F 51.8 °F 88% 29.80 in 1.2 mi Calm Calm - 0.15 in Rain Heavy Rain
6:42 AM 55.4 °F 51.8 °F 88% 29.80 in 1.8 mi Calm Calm - 0.18 in Rain Rain
6:47 AM 55.4 °F 51.8 °F 88% 29.80 in 2.5 mi Calm Calm - 0.19 in Rain Light Rain
6:54 AM 55.9 °F 51.1 °F 84% 29.80 in 2.0 mi Calm Calm - 0.20 in Rain Light Rain
7:27 AM 55.4 °F 51.8 °F 88% 29.81 in 3.0 mi Calm Calm - 0.08 in Rain Rain
7:31 AM 55.4 °F 51.8 °F 88% 29.81 in 2.5 mi Calm Calm - 0.10 in Rain Heavy Rain
7:54 AM 55.0 °F 51.1 °F 86% 29.81 in 2.5 mi Calm Calm - 0.16 in Rain Rain
7:58 AM 55.4 °F 51.8 °F 88% 29.81 in 3.0 mi Calm Calm - 0.00 in Rain Rain
8:41 AM 57.2 °F 51.8 °F 82% 29.82 in 4.0 mi SE 3.5 mph - 0.01 in Rain Light Rain
8:54 AM 57.0 °F 51.1 °F 81% 29.82 in 4.0 mi ENE 3.5 mph - 0.02 in Rain Light Rain
9:54 AM 57.0 °F 52.0 °F 83% 29.83 in 5.0 mi SE 5.8 mph - 0.01 in   Mostly Cloudy
10:06 AM 57.2 °F 51.8 °F 82% 29.83 in 5.0 mi SE 4.6 mph - N/A   Overcast
10:54 AM 57.9 °F 52.0 °F 81% 29.82 in 10.0 mi Variable 4.6 mph - N/A   Mostly Cloudy
11:54 AM 57.9 °F 52.0 °F 81% 29.79 in 10.0 mi SSE 4.6 mph - N/A   Mostly Cloudy
12:01 PM 57.2 °F 51.8 °F 82% 29.79 in 9.0 mi Variable 3.5 mph - 0.00 in Rain Light Rain
12:54 PM 60.1 °F 50.0 °F 69% 29.77 in 10.0 mi WSW 3.5 mph - 0.00 in   Mostly Cloudy
1:54 PM 57.9 °F 52.0 °F 81% 29.75 in 10.0 mi SW 3.5 mph - 0.01 in   Mostly Cloudy
3:20 PM 59.0 °F 46.4 °F 63% 29.74 in 10.0 mi West 5.8 mph - N/A   Mostly Cloudy
3:54 PM 59.0 °F 46.0 °F 62% 29.74 in 10.0 mi West 8.1 mph - N/A   Mostly Cloudy
4:54 PM 55.9 °F 44.1 °F 64% 29.75 in 10.0 mi Calm Calm - N/A   Mostly Cloudy
5:54 PM 54.0 °F 44.1 °F 69% 29.77 in 10.0 mi Calm Calm - N/A   Mostly Cloudy
6:54 PM 54.0 °F 44.1 °F 69% 29.75 in 10.0 mi Calm Calm - N/A   Mostly Cloudy
7:54 PM 53.1 °F 43.0 °F 69% 29.76 in 10.0 mi Calm Calm - N/A   Scattered Clouds
8:54 PM 51.1 °F 44.1 °F 77% 29.77 in 10.0 mi Calm Calm - N/A   Scattered Clouds
9:54 PM 50.0 °F 44.1 °F 80% 29.78 in 10.0 mi NE 3.5 mph - N/A   Scattered Clouds
10:54 PM 48.0 °F 43.0 °F 83% 29.77 in 10.0 mi NE 4.6 mph - N/A   Scattered Clouds
11:54 PM 46.9 °F 42.1 °F 83% 29.78 in 10.0 mi North 3.5 mph - N/A   Mostly Cloudy